Regional Weather Roundup
Issued by NWS

Home | Current Version | Previous Version | Text Only | Print | Product List | Glossary On
Versions: 1 2 3 4 5 6 7 8 9 10 11 12 13 14 15 16 17 18 19 20 21 22 23 24 25 26 27 28 29 30 31 32 33 34 35 36 37 38 39 40 41 42 43 44 45 46 47 48 49 50
297
ASUS43 KLMK 310110
RWRKY
KENTUCKY REGIONAL WEATHER ROUNDUP
NATIONAL WEATHER SERVICE LOUISVILLE KY
900 PM EDT THU MAR 30 2017

NOTE "FAIR" INDICATES FEW OR NO CLOUDS BELOW 12,000 FEET
WITH NO SIGNIFICANT WEATHER AND/OR OBSTRUCTIONS TO VISIBILITY.

KYZ001>023-026-027-061>063-070>075-310200-
WESTERN AND SOUTH CENTRAL KENTUCKY

CITY           SKY/WX    TMP DP  RH WIND       PRES   REMARKS
PADUCAH        CLEAR     58  44  60 W16       29.62R
HENDERSON      CLOUDY    57  52  82 S7        29.59R
OWENSBORO      RAIN      61  56  83 SW29G36   29.60S
HOPKINSVILLE   LGT RAIN  61  59  94 SW20      29.61S
BOWLING GREEN  CLOUDY    70  54  56 S9        29.60S
GLASGOW        CLOUDY    65  58  77 SW10      29.62S
$$

KYZ024-025-028>034-038-045-046-053-310200-
NORTH CENTRAL KENTUCKY

CITY           SKY/WX    TMP DP  RH WIND       PRES   REMARKS
LOUISVILLE/SDF CLOUDY    74  50  42 S12       29.58S
LOUISVILLE/LOU CLOUDY    73  52  47 S6        29.59S
FORT KNOX      CLOUDY    66  59  77 S10       29.58R
$$

KYZ035>037-039>044-047>052-055>060-089>105-310200-
NORTHEAST KENTUCKY

CITY           SKY/WX    TMP DP  RH WIND       PRES   REMARKS
LEXINGTON      CLOUDY    66  56  70 S6        29.64S
COVINGTON      CLOUDY    71  52  50 SW8       29.60F
FRANKFORT      CLOUDY    72  51  47 S5        29.60F
$$

KYZ054-064>069-076>088-106>120-310200-
SOUTHEAST KENTUCKY

CITY           SKY/WX    TMP DP  RH WIND       PRES   REMARKS
JACKSON        MOCLDY    73  51  46 VRB7      29.68F
LONDON         CLOUDY    74  44  34 S7        29.66F
SOMERSET       CLOUDY    73  50  43 S10       29.65S
MIDDLESBORO    CLOUDY    74  50  42 S13G18    29.69F
MONTICELLO     CLOUDY    73  55  53 SE7       29.65F
$$





USA.gov is the U.S. government's official web portal to all federal, state and local government web resources and services.